ATLAS 5 CENTAUR DEB, 43959

Orbit data source: Space-Track

ATLAS 5 CENTAUR DEB, 43959 is space debris in HEO originally from a launch on Wed, 17 Sep 2014 UTC launched from the Air Force Eastern Test Range (AFETR). Debris objects in space refer to the collection of defunct objects orbiting the Earth. Examples of debris include non-operational satellites, rocket bodies, and fragments generated from explosions, collisions, or faulty payload assembly.

Loading next visibility...
Identifier
43959, 2014-055N
Orbit
HEO
Country
Flag of USUS
Related business
Flag of USUnited Launch Alliance/Lockheed Martin (US)
Manufacturer
Unknown
Mission
Spacecraft
Bus & Motor
Unknown
Mass
Unknown
Launch date (UTC)
2014-09-17 (12 years ago)
Launch vehicle
Unknown
Launch site
Air Force Eastern Test Range (AFETR)
Object type
Payload
Rocket body
Debris
Shape & HBR
Unknown shape, 1.1 m
Radar Cross Section
Large (>1 m²)

Expand to show TLE details & history
Last TLE update: 1 week ago

TLE from 1 week ago
0 ATLAS 5 CENTAUR DEB
1 43959U 14055N   26227.57443279 -.00000128  00000-0  00000+0 0  9996
2 43959  20.1585 131.7244 5002874 183.5862 170.6825  1.81435043 52740
Epoch: 2026-08-15T13:47Z
TLE epoch observation values (Epoch: 2026-08-15T13:47:10.993Z)
Latitude
0.00004°
Longitude
-39.03977°
Altitude
36,163.352 km
Speed
2.169 km/s
True Right ascension
08h 46m 57s
True Declination
0° 00' 00"
Sunlit
Object was in daylight at epoch
Visualization orbit readout
Latitude
Unknown
Longitude
Unknown
Altitude
Unknown
Speed
Unknown
Apparent Right ascension
Unknown
Apparent Declination
Unknown
Sunlit
N/A
Visualization observer readout
Local Sidereal Time
15:53:55
Azimuth
Unknown
Elevation
Unknown
Doppler factor
Unknown
Orbital elements
Apogee altitude
36,226.724 km
Perigee altitude
7,812.601 km
Semi-major axis
28,397.8 km
Eccentricity
0.50029
Inclination
20.1585°
RAAN
131.7244°
Arg. of periapsis
183.5862°
True anomaly
176.41106°
Mean anomaly
170.6825°
Eccentric anomaly
173.78546°
Mean motion
0.45354 °/min
Orbital period
793.75 mins
BSTAR
0
Loading maneuver chart data...
Computing Atmospheric mass density...

Documentation

Showing up to 5 results
|